GW2622 Weather Reports


time (UTC)temp
F
wind
direction
speed
knots
gust
knots
rain 1hr
in
rain 24hr
in
rain mn
in
humidity
%
barometer
mb
20260905093007 76 261 0.0 0.9 0.00 0.00 0.00 95 1013.9
20260905092506 76 261 0.0 0.0 0.00 0.00 0.00 95 1013.7
20260905092002 76 261 0.9 0.9 0.00 0.00 0.00 95 1013.9
20260905091501 76 261 0.9 1.7 0.00 0.00 0.00 95 1013.9
20260905090956 76 262 0.9 0.9 0.00 0.00 0.00 94 1013.9
20260905090451 76 262 0.9 1.7 0.00 0.00 0.00 95 1013.7
20260905085950 76 262 0.0 0.9 0.00 0.00 0.00 95 1014.0
20260905085450 76 262 0.0 0.9 0.00 0.00 0.00 96 1014.1
20260905084946 76 262 0.0 0.0 0.00 0.00 0.00 96 1014.2
20260905084445 76 262 0.0 0.9 0.00 0.00 0.00 96 1014.1
20260905083939 76 262 0.0 0.9 0.00 0.00 0.00 96 1014.3
20260905083436 76 262 0.9 0.9 0.00 0.00 0.00 96 1014.2
20260905082931 76 262 0.0 0.0 0.00 0.00 0.00 96 1014.1
20260905082427 76 262 0.0 0.0 0.00 0.00 0.00 96 1014.2
20260905081922 76 262 0.0 0.0 0.00 0.00 0.00 96 1014.2
20260905081417 76 262 0.9 0.9 0.00 0.00 0.00 95 1014.2
20260905080915 76 262 0.9 0.9 0.00 0.00 0.00 95 1014.3
20260905080410 76 262 0.9 0.9 0.00 0.00 0.00 95 1014.4
20260905075909 76 262 0.9 1.7 0.00 0.00 0.00 96 1014.3
20260905075409 76 262 0.9 0.9 0.00 0.00 0.00 96 1014.2
20260905074908 76 262 0.0 0.0 0.00 0.00 0.00 97 1014.5
20260905074358 76 262 0.0 0.0 0.00 0.00 0.00 97 1014.3
20260905073854 76 262 0.0 0.0 0.00 0.00 0.00 96 1014.3
20260905073349 76 262 0.0 0.0 0.00 0.00 0.00 96 1014.5
20260905072844 76 262 0.9 0.9 0.00 0.00 0.00 96 1014.4
20260905072338 76 262 0.0 0.0 0.00 0.00 0.00 97 1014.2
20260905071835 76 262 0.0 0.0 0.00 0.00 0.00 97 1014.2
20260905071332 76 262 0.0 0.0 0.00 0.00 0.00 97 1014.4
20260905070831 76 262 0.0 0.0 0.00 0.00 0.00 96 1014.3
20260905070328 76 262 0.0 0.0 0.00 0.00 0.00 96 1014.2
20260905065826 77 262 0.0 0.0 0.00 0.00 0.00 96 1014.2
20260905065325 77 262 0.0 0.0 0.00 0.00 0.00 96 1014.3
20260905064820 77 262 0.0 0.0 0.00 0.00 0.00 96 1014.4
20260905064317 77 262 0.0 0.0 0.00 0.00 0.00 96 1014.2
20260905063815 77 262 0.9 0.9 0.00 0.00 0.00 96 1014.2
20260905063311 76 262 0.0 0.0 0.00 0.00 0.00 97 1014.3
20260905062807 76 262 0.0 0.0 0.00 0.00 0.00 97 1014.4
20260905062307 76 262 0.0 0.0 0.00 0.00 0.00 97 1014.2
20260905061801 76 262 0.0 0.0 0.00 0.00 0.00 97 1014.4
20260905061255 76 262 0.0 0.0 0.00 0.00 0.00 97 1014.3
20260905060750 76 262 0.0 0.0 0.00 0.00 0.00 96 1014.4
20260905060248 76 262 0.0 0.0 0.00 0.00 0.00 96 1014.2
20260905055746 77 262 0.0 0.0 0.00 0.00 0.00 96 1014.2
20260905055241 77 262 0.0 0.0 0.00 0.00 0.00 96 1014.2
20260905054736 77 262 0.0 0.0 0.00 0.00 0.00 95 1014.2
20260905054233 77 262 0.0 0.0 0.00 0.00 0.00 95 1014.1
20260905053731 77 262 0.0 0.0 0.00 0.00 0.00 94 1014.1
20260905053227 78 262 0.0 0.0 0.00 0.00 0.00 94 1014.2
20260905052726 78 262 0.0 0.0 0.00 0.00 0.00 93 1014.1
20260905052222 78 262 0.9 0.9 0.00 0.00 0.00 93 1014.1
20260905051721 78 262 0.9 0.9 0.00 0.00 0.00 94 1014.0
20260905051218 78 262 0.0 0.0 0.00 0.00 0.00 94 1014.1
20260905050714 78 262 0.0 0.0 0.00 0.00 0.00 94 1014.2
20260905050211 78 262 0.0 0.0 0.00 0.00 0.00 94 1014.0
20260905045710 78 262 0.0 0.0 0.00 0.03 0.03 94 1014.1
20260905045206 78 262 0.0 0.0 0.00 0.03 0.03 94 1013.9
20260905044700 78 262 0.0 0.0 0.00 0.03 0.03 93 1013.7
20260905044155 79 262 0.0 0.0 0.00 0.03 0.03 93 1014.0
20260905043654 79 262 0.0 0.0 0.00 0.03 0.03 92 1013.9
20260905043149 80 262 0.0 0.0 0.00 0.03 0.03 91 1013.7
20260905042649 80 257 0.9 1.7 0.00 0.03 0.03 91 1013.9
20260905042148 80 263 0.0 0.0 0.00 0.03 0.03 91 1013.6
20260905041644 80 263 0.0 0.9 0.00 0.03 0.03 91 1013.5
20260905041139 80 263 0.9 0.9 0.00 0.03 0.03 91 1014.0
20260905040634 80 263 0.0 0.9 0.00 0.03 0.03 91 1013.9
20260905040127 80 263 0.9 0.9 0.00 0.03 0.03 91 1013.6
20260905035622 80 260 0.9 1.7 0.00 0.03 0.03 91 1013.7
20260905035119 80 244 0.9 1.7 0.00 0.03 0.03 91 1013.7
20260905034614 81 268 0.0 0.9 0.00 0.03 0.03 91 1013.9
20260905034108 81 257 0.9 1.7 0.00 0.03 0.03 91 1013.9
20260905033608 81 275 0.9 1.7 0.00 0.03 0.03 91 1013.7
20260905033104 81 267 0.9 0.9 0.00 0.03 0.03 90 1013.7
20260905032603 81 269 0.0 0.9 0.00 0.03 0.03 90 1013.6
20260905032058 81 277 0.0 0.9 0.00 0.03 0.03 90 1013.9
20260905031554 81 272 0.0 0.9 0.00 0.03 0.03 89 1013.7
20260905031054 82 253 0.9 1.7 0.00 0.03 0.03 89 1013.9
20260905030549 82 230 1.7 1.7 0.00 0.03 0.03 88 1013.7
20260905030043 82 212 1.7 1.7 0.00 0.03 0.03 88 1013.9
20260905025538 82 226 1.7 1.7 0.00 0.03 0.03 88 1013.7
20260905025035 82 276 0.0 0.9 0.00 0.03 0.03 88 1013.7
20260905024530 82 284 0.0 0.9 0.00 0.03 0.03 88 1013.5
20260905024026 82 274 0.9 1.7 0.00 0.03 0.03 88 1013.7
20260905023521 82 252 0.9 1.7 0.00 0.03 0.03 87 1013.7
20260905023021 82 267 0.9 1.7 0.00 0.03 0.03 87 1013.5
20260905022515 83 269 0.0 0.9 0.00 0.03 0.03 86 1013.7
20260905022010 83 269 0.0 0.9 0.00 0.03 0.03 85 1013.5
20260905021510 83 270 0.0 0.9 0.00 0.03 0.03 84 1013.6
20260905021005 83 269 0.0 0.9 0.00 0.03 0.03 84 1013.4
20260905020459 83 269 0.0 0.9 0.00 0.03 0.03 85 1013.6
20260905015954 84 271 0.9 0.9 0.00 0.03 0.03 85 1013.3
20260905015452 84 272 0.0 0.0 0.00 0.03 0.03 85 1013.5
20260905014952 84 272 0.0 0.0 0.00 0.03 0.03 85 1013.3
20260905014447 84 272 0.0 0.0 0.00 0.03 0.03 85 1013.2
20260905013942 84 272 0.0 0.0 0.00 0.03 0.03 85 1013.2
20260905013439 84 272 0.0 0.0 0.00 0.03 0.03 86 1013.0
20260905012933 84 272 0.0 0.0 0.00 0.03 0.03 85 1013.0
20260905012428 84 272 0.0 0.0 0.00 0.03 0.03 84 1012.9
20260905011925 84 272 0.0 0.0 0.00 0.03 0.03 84 1012.8
20260905011421 84 272 0.0 0.0 0.00 0.03 0.03 83 1012.8
20260905010916 84 272 0.0 0.0 0.00 0.03 0.03 83 1012.7
20260905010410 84 272 0.0 0.0 0.00 0.03 0.03 83 1012.7
20260905005901 84 272 0.0 0.0 0.00 0.03 0.03 83 1012.8
20260905005357 85 272 0.0 0.0 0.00 0.03 0.03 85 1012.6
20260905004851 85 272 0.0 0.0 0.00 0.03 0.03 85 1012.6
20260905004346 85 272 0.0 0.0 0.00 0.03 0.03 84 1012.8
20260905003841 86 272 0.0 0.0 0.00 0.03 0.03 84 1012.6
20260905003337 86 272 0.0 0.0 0.00 0.03 0.03 84 1012.6
20260905002833 86 272 0.0 0.0 0.00 0.03 0.03 84 1012.8
20260905002332 87 272 0.0 0.0 0.00 0.03 0.03 84 1012.9
20260905001827 87 272 0.0 0.0 0.00 0.03 0.03 83 1012.7
20260905001326 87 275 0.9 0.9 0.00 0.03 0.03 83 1012.6
20260905000822 88 277 0.0 0.0 0.00 0.03 0.03 83 1012.8
20260905000318 88 277 0.0 0.0 0.00 0.03 0.03 82 1012.8
20260904235812 88 277 0.0 0.0 0.00 0.03 0.03 81 1012.7
20260904235308 89 277 0.0 0.0 0.00 0.03 0.03 81 1012.7
20260904234803 89 277 0.0 0.0 0.00 0.03 0.03 80 1012.7
20260904234258 90 277 0.0 0.0 0.00 0.03 0.03 79 1012.6
20260904233754 90 277 0.0 0.0 0.00 0.03 0.03 79 1012.6
20260904233250 90 240 1.7 1.7 0.00 0.03 0.03 78 1012.6
20260904232746 90 260 0.9 1.7 0.00 0.03 0.03 76 1012.7
20260904232242 90 270 0.9 1.7 0.00 0.03 0.03 76 1012.5
20260904231737 91 257 1.7 1.7 0.00 0.03 0.03 75 1012.5
20260904231233 91 274 0.9 0.9 0.00 0.03 0.03 73 1012.5
20260904230732 92 276 0.0 0.0 0.00 0.03 0.03 78 1012.5
20260904230226 91 276 0.0 0.9 0.00 0.03 0.03 77 1012.5
20260904225726 91 272 0.0 1.7 0.00 0.03 0.03 72 1012.5
20260904225220 91 282 0.9 0.9 0.00 0.03 0.03 77 1012.4
20260904224719 91 247 0.9 1.7 0.00 0.03 0.03 76 1012.4
20260904224214 91 276 0.9 0.9 0.00 0.03 0.03 80 1012.5
20260904223713 90 270 1.7 1.7 0.00 0.03 0.03 79 1012.4
20260904223209 89 269 0.9 0.9 0.00 0.03 0.03 80 1012.5
20260904222704 87 303 0.0 0.0 0.00 0.03 0.03 88 1012.2
20260904222200 86 303 0.0 0.0 0.00 0.03 0.03 91 1012.3
20260904221659 86 303 0.0 0.0 0.00 0.03 0.03 90 1012.4
20260904221154 86 303 0.0 0.0 0.12 0.03 0.03 85 1012.4
20260904220649 88 303 0.0 0.9 0.17 0.03 0.03 84 1012.4
20260904220144 89 280 0.0 0.9 0.05 0.01 0.01 79 1012.3
20260904215638 89 260 0.9 1.7 0.00 0.00 0.00 73 1012.3
20260904215135 90 221 2.6 4.3 0.00 0.00 0.00 73 1012.4
20260904214635 90 225 2.6 4.3 0.00 0.00 0.00 71 1012.1
20260904214130 90 236 2.6 4.3 0.00 0.00 0.00 71 1012.4
20260904213628 90 236 2.6 2.6 0.00 0.00 0.00 72 1012.5
20260904213125 91 254 2.6 4.3 0.00 0.00 0.00 71 1012.2
20260904212620 89 244 0.9 2.6 0.00 0.00 0.00 76 1012.3
20260904212115 89 241 1.7 1.7 0.00 0.00 0.00 77 1012.5
20260904211614 90 248 0.9 1.7 0.00 0.00 0.00 76 1012.5
20260904211110 90 263 0.9 1.7 0.00 0.00 0.00 75 1012.4
20260904210609 91 277 0.9 1.7 0.00 0.00 0.00 72 1012.6
20260904210100 93 229 3.5 5.2 0.00 0.00 0.00 61 1012.4
20260904205555 93 234 2.6 7.0 0.00 0.00 0.00 60 1012.4
20260904205051 94 244 3.5 7.0 0.00 0.00 0.00 58 1012.6
20260904204547 96 216 3.5 7.8 0.00 0.00 0.00 58 1012.6
20260904204043 96 205 2.6 6.1 0.00 0.00 0.00 56 1012.5
20260904203538 96 196 4.3 7.8 0.00 0.00 0.00 56 1012.4
20260904203035 96 213 4.3 6.1 0.00 0.00 0.00 55 1012.5
20260904202530 95 182 4.3 7.8 0.00 0.00 0.00 56 1012.5
20260904202026 96 234 6.1 8.7 0.00 0.00 0.00 56 1012.7
20260904201521 96 200 2.6 5.2 0.00 0.00 0.00 56 1012.7
20260904201016 96 251 2.6 4.3 0.00 0.00 0.00 55 1012.6
20260904200514 96 278 2.6 9.6 0.00 0.00 0.00 58 1012.7
20260904200010 95 208 4.3 7.8 0.00 0.00 0.00 57 1012.9
20260904195508 95 201 4.3 7.0 0.00 0.00 0.00 57 1012.8
20260904195008 96 237 4.3 6.1 0.00 0.00 0.00 56 1012.6
20260904194503 95 214 7.0 9.6 0.00 0.00 0.00 56 1012.5
20260904193957 95 188 4.3 7.8 0.00 0.00 0.00 58 1012.6
20260904193452 95 243 5.2 7.8 0.00 0.00 0.00 56 1012.5
20260904192948 95 174 5.2 9.6 0.00 0.00 0.00 57 1012.7
20260904192443 94 202 4.3 9.6 0.00 0.00 0.00 59 1012.6
20260904191940 94 172 4.3 7.0 0.00 0.00 0.00 59 1012.7
20260904191436 95 203 7.8 9.6 0.00 0.00 0.00 57 1012.6
20260904190932 95 199 7.8 13.0 0.00 0.00 0.00 58 1012.7
20260904190426 96 217 7.0 7.8 0.00 0.00 0.00 59 1012.6
20260904185923 95 249 4.3 6.1 0.00 0.00 0.00 59 1012.8
20260904185418 94 168 2.6 8.7 0.00 0.00 0.00 60 1012.8
20260904184913 94 277 7.0 7.8 0.00 0.00 0.00 59 1012.8
20260904184408 93 191 7.0 8.7 0.00 0.00 0.00 60 1013.0
20260904183903 94 221 4.3 11.3 0.00 0.00 0.00 61 1013.0
20260904183358 93 233 2.6 7.0 0.00 0.00 0.00 62 1013.1
20260904182854 94 146 4.3 7.0 0.00 0.00 0.00 61 1013.1
20260904182348 93 244 4.3 7.8 0.00 0.00 0.00 62 1013.0
20260904181843 93 175 6.1 7.0 0.00 0.00 0.00 61 1013.1
20260904181338 94 199 4.3 7.0 0.00 0.00 0.00 60 1013.0
20260904180834 93 286 3.5 7.8 0.00 0.00 0.00 61 1013.3
20260904180329 93 214 8.7 9.6 0.00 0.00 0.00 62 1013.3
20260904175828 93 274 4.3 7.8 0.00 0.00 0.00 60 1013.1
20260904175327 92 193 6.1 7.8 0.00 0.00 0.00 62 1013.3
20260904174827 93 184 6.1 7.8 0.00 0.00 0.00 64 1013.3
20260904174323 92 211 3.5 7.8 0.00 0.00 0.00 63 1013.1
20260904173819 92 218 6.1 7.8 0.00 0.00 0.00 62 1013.2
20260904173314 92 197 5.2 7.8 0.00 0.00 0.00 64 1013.3
20260904172810 92 301 4.3 7.0 0.00 0.00 0.00 63 1013.3
20260904172309 91 214 6.1 7.8 0.00 0.00 0.00 62 1013.4
20260904171804 91 206 4.3 8.7 0.00 0.00 0.00 63 1013.6
20260904171259 91 235 3.5 7.8 0.00 0.00 0.00 64 1013.5
20260904170755 91 215 6.1 8.7 0.00 0.00 0.00 63 1013.6
20260904170251 91 205 6.1 7.8 0.00 0.00 0.00 63 1013.5
20260904165750 90 186 5.2 7.8 0.00 0.00 0.00 64 1013.5
20260904165244 90 215 7.0 9.6 0.00 0.00 0.00 64 1013.6
20260904164738 91 228 6.1 7.8 0.00 0.00 0.00 64 1013.7
20260904164234 90 221 6.1 9.6 0.00 0.00 0.00 65 1013.7
20260904163730 89 219 4.3 7.8 0.00 0.00 0.00 67 1013.6
20260904163225 90 219 3.5 7.0 0.00 0.00 0.00 66 1013.5
20260904162724 90 224 2.6 7.0 0.00 0.00 0.00 67 1013.7
20260904162219 89 180 2.6 7.8 0.00 0.00 0.00 67 1013.7
20260904161715 89 218 3.5 7.0 0.00 0.00 0.00 66 1013.6
20260904161209 89 231 2.6 8.7 0.00 0.00 0.00 67 1013.7
20260904160705 89 226 4.3 7.0 0.00 0.00 0.00 69 1013.4
20260904160201 88 218 6.1 7.8 0.00 0.00 0.00 69 1013.6
20260904155655 88 193 4.3 6.1 0.00 0.00 0.00 70 1013.4
20260904155155 88 167 6.1 9.6 0.00 0.00 0.00 69 1013.5
20260904154653 88 225 3.5 7.0 0.00 0.00 0.00 71 1013.5
20260904154153 88 196 5.2 8.7 0.00 0.00 0.00 69 1013.4
20260904153648 88 207 4.3 8.7 0.00 0.00 0.00 69 1013.4
20260904153144 88 172 6.1 7.0 0.00 0.00 0.00 70 1013.3
20260904152640 87 208 3.5 6.1 0.00 0.00 0.00 70 1013.4
20260904152136 87 203 5.2 6.1 0.00 0.00 0.00 71 1013.2
20260904151630 87 215 5.2 8.7 0.00 0.00 0.00 72 1013.3
20260904151129 86 209 2.6 5.2 0.00 0.00 0.00 72 1013.4
20260904150625 86 122 5.2 8.7 0.00 0.00 0.00 72 1013.4
20260904150120 86 226 5.2 7.0 0.00 0.00 0.00 73 1013.4
20260904145618 85 172 6.1 9.6 0.00 0.00 0.00 75 1013.4
20260904145114 84 190 3.5 7.8 0.00 0.00 0.00 77 1013.3
20260904144609 84 192 4.3 7.0 0.00 0.00 0.00 76 1013.5
20260904144105 84 163 5.2 6.1 0.00 0.00 0.00 77 1013.5
20260904143601 84 227 4.3 6.1 0.00 0.00 0.00 76 1013.3
20260904143057 83 184 5.2 7.0 0.00 0.00 0.00 77 1013.3
20260904142554 82 222 4.3 7.0 0.00 0.00 0.00 79 1013.4
20260904142053 82 227 3.5 7.0 0.00 0.00 0.00 80 1013.3
20260904141549 81 229 5.2 7.0 0.00 0.00 0.00 81 1013.4
20260904141044 81 217 4.3 6.1 0.00 0.00 0.00 81 1013.4
20260904140540 81 195 3.5 5.2 0.00 0.00 0.00 81 1013.3
20260904140039 81 184 6.1 7.0 0.00 0.00 0.00 81 1013.4
20260904135539 80 195 4.3 6.1 0.00 0.00 0.00 82 1013.4
20260904135035 80 188 4.3 5.2 0.00 0.00 0.00 82 1013.4
20260904134530 80 230 3.5 5.2 0.00 0.00 0.00 82 1013.3
20260904134025 79 256 3.5 5.2 0.00 0.00 0.00 84 1013.3
20260904133520 79 279 1.7 2.6 0.00 0.00 0.00 84 1013.4
20260904133016 79 260 0.9 2.6 0.00 0.00 0.00 84 1013.1
20260904132515 78 160 4.3 5.2 0.00 0.00 0.00 84 1013.3
20260904132010 78 242 2.6 2.6 0.00 0.00 0.00 85 1013.0
20260904131505 78 269 1.7 2.6 0.00 0.00 0.00 85 1013.0
20260904131001 77 272 0.9 1.7 0.00 0.00 0.00 86 1013.3
20260904130459 78 260 0.9 1.7 0.00 0.00 0.00 86 1013.1
20260904125954 77 187 1.7 1.7 0.00 0.00 0.00 86 1013.0
20260904125451 77 252 0.9 1.7 0.00 0.00 0.00 87 1013.2
20260904124950 77 237 1.7 2.6 0.00 0.00 0.00 87 1013.0
20260904124446 77 221 1.7 1.7 0.00 0.00 0.00 87 1013.1
20260904123942 77 234 1.7 2.6 0.00 0.00 0.00 87 1012.8
20260904123436 77 242 1.7 1.7 0.00 0.00 0.00 87 1013.0
20260904122931 76 257 0.9 1.7 0.00 0.00 0.00 87 1012.7
20260904122426 76 274 0.9 1.7 0.00 0.00 0.00 87 1012.7
20260904121920 75 278 0.9 0.9 0.00 0.00 0.00 88 1012.9
20260904121417 75 255 1.7 1.7 0.00 0.00 0.00 88 1012.9
20260904120913 75 267 1.7 1.7 0.00 0.00 0.00 89 1012.8
20260904120409 74 264 0.9 1.7 0.00 0.00 0.00 89 1012.8
20260904115904 74 270 0.0 0.9 0.00 0.00 0.00 90 1012.9
20260904115359 74 265 0.9 1.7 0.00 0.00 0.00 90 1012.7
20260904114853 74 238 1.7 1.7 0.00 0.00 0.00 90 1012.8
20260904114348 74 244 1.7 1.7 0.00 0.00 0.00 89 1012.5
20260904113843 74 247 1.7 1.7 0.00 0.00 0.00 89 1012.5
20260904113342 74 228 2.6 2.6 0.00 0.00 0.00 90 1012.4
20260904112837 74 235 1.7 1.7 0.00 0.00 0.00 89 1012.5
20260904112333 74 235 1.7 2.6 0.00 0.00 0.00 89 1012.4
20260904111828 74 230 1.7 2.6 0.00 0.00 0.00 89 1012.5
20260904111324 74 256 0.9 2.6 0.00 0.00 0.00 89 1012.3
20260904110820 74 250 0.9 2.6 0.00 0.00 0.00 89 1012.2
20260904110319 74 257 0.9 1.7 0.00 0.00 0.00 89 1012.2
20260904105813 74 248 0.9 2.6 0.00 0.00 0.00 89 1012.2
20260904105308 74 244 1.7 2.6 0.00 0.00 0.00 89 1012.2
20260904104803 74 237 1.7 2.6 0.00 0.00 0.00 89 1012.3
20260904104259 74 242 1.7 2.6 0.00 0.00 0.00 89 1012.1
20260904103756 74 226 1.7 2.6 0.00 0.00 0.00 89 1012.1
20260904103255 74 234 1.7 2.6 0.00 0.00 0.00 89 1012.1
20260904102751 74 244 0.9 1.7 0.00 0.00 0.00 89 1012.1
20260904102246 74 245 0.9 1.7 0.00 0.00 0.00 89 1012.2
20260904101742 74 246 0.9 0.9 0.00 0.00 0.00 90 1012.0
20260904101238 74 246 0.0 0.0 0.00 0.00 0.00 90 1012.0
20260904100734 74 246 0.0 0.9 0.00 0.00 0.00 89 1012.0
20260904100230 75 245 0.9 1.7 0.00 0.00 0.00 89 1012.1
20260904095729 75 245 0.9 1.7 0.00 0.00 0.00 89 1012.0
20260904095224 75 245 1.7 1.7 0.00 0.00 0.00 89 1011.9
20260904094719 75 246 1.7 1.7 0.00 0.00 0.00 88 1012.0
20260904094219 75 249 0.9 1.7 0.00 0.00 0.00 88 1011.9
20260904093716 75 237 1.7 1.7 0.00 0.00 0.00 88 1011.8
20260904093215 75 228 2.6 2.6 0.00 0.00 0.00 88 1011.8